User: anonymous   Login
Location: Nirvana
(45.0297°N, 77.2628°W)
Time: 16:37:50
(UTC-04:00)
Language:

H-2A R/B - Orbit

View from above orbital plane
View from above orbital plane
View from above satellite
View from above satellite

Ground track
Ground track

The orbit data is extracted from the following two-line orbital elements,

1 27601U 02056E   15142.17781545  .00000183  00000-0  82307-4 0  9996
2 27601 098.4542 221.5647 0072601 018.1163 041.2298 14.31599911649494
Epoch (UTC): 22 May 2015 04:16:03
Eccentricity: 0.0072601
inclination: 98.4542°
perigee height: 734 km
apogee height: 838 km
right ascension of ascending node: 221.5647°
argument of perigee: 18.1163°
revolutions per day: 14.31599911
mean anomaly at epoch: 41.2298°
orbit number at epoch: 64949

The dashed part of the orbit path shows where the satellite is in the earth's shadow,  

DLR